This demonstration page uses our WeatherBlox Daily Observations layout. Learn more.

38.80484, -77.04692

Hourly Observations for September 24, 2016

Temp ( °F °C ) Dew Point ( °F °C ) Humidity (%) Winds ( mph kmh ) Pressure ( in mb ) Visibility ( mi km ) Precip ( " mm )
12:52 am 00:52 Clear 74 23.3 70 21.1 88 88 S 5 7 30 1016 10 16.0934 0 0
1:52 am 01:52 Clear 73 22.8 68 20 84 84 SSW 5 7 29.99 1016 10 16.0934 0 0
2:52 am 02:52 Mostly Clear 71 21.7 68 20 90 90 SSW 7 11 29.98 1015 10 16.0934 0 0
3:52 am 03:52 Mostly Clear 71 21.7 67 19.4 87 87 SW 3 6 29.99 1016 10 16.0934 0 0
4:52 am 04:52 Mostly Clear 72 22.2 67 19.4 84 84 Calm 29.99 1016 10 16.0934 0 0
5:52 am 05:52 Mostly Clear 70 21.1 67 19.4 90 90 N 8 13 30.01 1016 10 16.0934 0 0
6:52 am 06:52 Mostly Clear 73 22.8 65 18.3 76 76 NNE 10 17 30.02 1017 10 16.0934 0 0
7:52 am 07:52 Partly Cloudy 73 22.8 66 18.9 79 79 NNE 9 15 30.04 1017 10 16.0934 0 0
8:52 am 08:52 Mostly Sunny 74 23.3 66 18.9 76 76 NE 13 20 30.05 1018 8 12.87472 0 0
9:52 am 09:52 Mostly Cloudy 76 24.4 66 18.9 72 72 NE 14 22 30.08 1019 9 14.48406 0 0
10:52 am 10:52 Cloudy 76 24.4 66 18.9 72 72 ENE 14 22 30.09 1019 10 16.0934 0 0
11:52 am 11:52 Cloudy 74 23.3 66 18.9 76 76 NE 10 17 30.1 1019 9 14.48406 0 0
12:52 pm 12:52 Cloudy 73 22.8 66 18.9 79 79 NE 12 19 30.1 1019 10 16.0934 0 0
1:52 pm 13:52 Cloudy 72 22.2 66 18.9 82 82 NE 12 19 30.1 1019 10 16.0934 0 0
2:52 pm 14:52 Cloudy 72 22.2 64 17.8 76 76 NNE 12 19 30.1 1019 10 16.0934 0 0
3:52 pm 15:52 Mostly Cloudy 73 22.8 63 17.2 71 71 NE 9 15 30.08 1019 9 14.48406 0 0
4:41 pm 16:41 Mostly Cloudy 74 23.3 63 17.2 69 69 ENE 7 11 30.09 1019 10 16.0934 0 0
4:52 pm 16:52 Mostly Cloudy 74 23.3 63 17.2 69 69 NE 10 17 30.08 1019 10 16.0934 0 0
5:52 pm 17:52 Mostly Cloudy 73 22.8 62 16.7 69 69 NNE 8 13 30.09 1019 10 16.0934 0 0
6:08 pm 18:08 Mostly Cloudy 72 22 63 17 73 73 ENE 10 17 30.09 1019 10 16.0934 0 0
6:52 pm 18:52 Mostly Sunny 71 21.7 62 16.7 73 73 ENE 8 13 30.1 1019 10 16.0934 0 0
7:52 pm 19:52 Mostly Clear 69 20.6 62 16.7 78 78 E 7 11 30.11 1020 10 16.0934 0 0
8:52 pm 20:52 Mostly Clear 68 20 62 16.7 81 81 E 6 9 30.13 1020 10 16.0934 0 0
9:52 pm 21:52 Partly Cloudy 67 19.4 62 16.7 84 84 SE 8 13 30.15 1021 10 16.0934 0 0
10:52 pm 22:52 Partly Cloudy 66 18.9 62 16.7 87 87 ESE 7 11 30.15 1021 10 16.0934 0 0
11:52 pm 23:52 Mostly Clear 66 18.9 62 16.7 87 87 ENE 5 7 30.15 1021 10 16.0934 0 0

Powered by AerisWeather